Погода в Дмитриеве Усаде

Россия / Республика Мордовия     54°13′41″N   43°17′19″E
темп.,
°C
ветер,
м/с
пор.,
м/с
влажн.,
%
обл.,
%
осадки,
мм/ч
давл.,
гПа
погр.,
м
21 апреля, ср
ср2100:00+4вюв112192100 9.0 10121005
03:00+6юв122289100 14.0 1009976
06:00+6юв13228399 0.0 1008860
09:00+6юв11208155 0.2 1009798
12:00+8ююв101786100 0.1 1009913
15:00+11ююв81381100 0.5 10101492
18:00+8ююз71094100 2.7 1010747
21:00+6юз51089100 4.0 1015817
22 апреля, чт
чт2200:00+6ююз4984100 0.1 1016509
03:00+6ю3886100 0.1 1017253
06:00+6ю5109450 0.2 1017450
09:00+8юз6882100 0.4 1019793
12:00+10юз6867100 0.1 10201290
15:00+11з575785 0.1 10201420
18:00+11юз23625 0.0 1021100
21:00+8ю357496 0.0 102270
23 апреля, пт
пт2300:00+8ююв477565 0.0 1021141
03:00+8ююв4876100 0.0 1021149
06:00+8ю4877100 0.0 1021177
09:00+11ю586590 0.0 1022335
12:00+15ю564654 0.0 10212079
15:00+15ююв5645100 0.0 10201827
18:00+14юв365916 0.0 1018201
21:00+9юв48715 0.0 1018137
24 апреля, сб
сб2400:00+8юв477851 0.0 1016121
03:00+8юв368480 0.2 1014125
06:00+8ююв41087100 0.3 1013294
09:00+12ююв79723 0.8 1011557
12:00+15ю71052100 1.1 10081941
15:00+13ююз7962100 2.6 10071736
18:00+4зсз6994100 2.8 1009513
21:00+5зюз4787100 4.0 1009636
25 апреля, вс
вс2500:00+4зюз389321 0.1 1009264
03:00+3зюз4108643 0.1 1010263
06:00+2зюз4118312 0.0 1011377
09:00+6зюз610635 0.1 10111411
12:00+8зюз8104999 0.4 10122102
15:00+9зюз8104990 0.7 10121951
18:00+7зюз6106226 0.9 10131346
21:00+3юз497371 0.9 1014259